owner,sensor,date,latitude,longitude,vertical_datum,mass_concentration_of_oxygen_in_sea_water,qcFlag 
DISL,ioos:station:DISL:MBLA:1,2012-05-01T00:02:00Z,30.4367,-88.0117,3.009,8.34,1111122 
DISL,ioos:station:DISL:MBLA:1,2012-05-01T00:05:00Z,30.4367,-88.0117,2.456,8.66,1111122 
DISL,ioos:station:DISL:MBLA:1,2012-05-01T00:07:00Z,30.4367,-88.0117,1.942,8.9,1111122 
DISL,ioos:station:DISL:MBLA:1,2012-05-01T00:10:00Z,30.4367,-88.0117,1.427,8.99,1111122 
DISL,ioos:station:DISL:MBLA:1,2012-05-01T00:12:00Z,30.4367,-88.0117,1.086,9.04,1111122 
DISL,ioos:station:DISL:MBLA:1,2012-05-01T00:15:00Z,30.4367,-88.0117,0.445,9.26,1111122 
DISL,ioos:station:DISL:MBLA:1,2012-05-01T01:02:00Z,30.4367,-88.0117,2.975,8.75,1111122 
DISL,ioos:station:DISL:MBLA:1,2012-05-01T01:05:00Z,30.4367,-88.0117,2.445,8.58,1111122 
DISL,ioos:station:DISL:MBLA:1,2012-05-01T01:07:00Z,30.4367,-88.0117,1.945,8.78,1111122 
DISL,ioos:station:DISL:MBLA:1,2012-05-01T01:10:00Z,30.4367,-88.0117,1.446,8.88,1111122 
DISL,ioos:station:DISL:MBLA:1,2012-05-01T01:12:00Z,30.4367,-88.0117,0.949,8.81,1111122 
DISL,ioos:station:DISL:MBLA:1,2012-05-01T01:15:00Z,30.4367,-88.0117,0.449,9.01,1111122 
DISL,ioos:station:DISL:MBLA:1,2012-05-01T02:02:00Z,30.4367,-88.0117,3.036,8.18,1111122 
DISL,ioos:station:DISL:MBLA:1,2012-05-01T02:05:00Z,30.4367,-88.0117,2.5,8.04,1111122 
DISL,ioos:station:DISL:MBLA:1,2012-05-01T02:07:00Z,30.4367,-88.0117,1.927,8.28,1111122 
DISL,ioos:station:DISL:MBLA:1,2012-05-01T02:10:00Z,30.4367,-88.0117,1.432,8.14,1111122 
DISL,ioos:station:DISL:MBLA:1,2012-05-01T02:12:00Z,30.4367,-88.0117,0.947,8.27,1111122 
DISL,ioos:station:DISL:MBLA:1,2012-05-01T02:15:00Z,30.4367,-88.0117,0.446,8.65,1111122 
DISL,ioos:station:DISL:MBLA:1,2012-05-01T03:02:00Z,30.4367,-88.0117,3.003,7.92,1111122 
DISL,ioos:station:DISL:MBLA:1,2012-05-01T03:05:00Z,30.4367,-88.0117,2.475,7.87,1111122 
DISL,ioos:station:DISL:MBLA:1,2012-05-01T03:07:00Z,30.4367,-88.0117,1.926,7.79,1111122 
DISL,ioos:station:DISL:MBLA:1,2012-05-01T03:10:00Z,30.4367,-88.0117,1.437,7.25,1111122 
DISL,ioos:station:DISL:MBLA:1,2012-05-01T03:12:00Z,30.4367,-88.0117,0.946,7.82,1111122 
DISL,ioos:station:DISL:MBLA:1,2012-05-01T03:15:00Z,30.4367,-88.0117,0.455,8.47,1111122 
DISL,ioos:station:DISL:MBLA:1,2012-05-01T04:02:00Z,30.4367,-88.0117,2.974,7.86,1111122 
DISL,ioos:station:DISL:MBLA:1,2012-05-01T04:05:00Z,30.4367,-88.0117,2.45,8.09,1111122 
DISL,ioos:station:DISL:MBLA:1,2012-05-01T04:07:00Z,30.4367,-88.0117,1.97,8.02,1111122 
DISL,ioos:station:DISL:MBLA:1,2012-05-01T04:10:00Z,30.4367,-88.0117,1.413,7.3,1111122 
DISL,ioos:station:DISL:MBLA:1,2012-05-01T04:12:00Z,30.4367,-88.0117,0.922,8.1,1111122 
DISL,ioos:station:DISL:MBLA:1,2012-05-01T04:15:00Z,30.4367,-88.0117,0.426,8.61,1111122 
DISL,ioos:station:DISL:MBLA:1,2012-05-01T05:02:00Z,30.4367,-88.0117,3.01,7.01,1111122 
DISL,ioos:station:DISL:MBLA:1,2012-05-01T05:05:00Z,30.4367,-88.0117,2.499,8.03,1111122 
DISL,ioos:station:DISL:MBLA:1,2012-05-01T05:07:00Z,30.4367,-88.0117,1.952,8.1,1111122 
DISL,ioos:station:DISL:MBLA:1,2012-05-01T05:10:00Z,30.4367,-88.0117,1.458,7.67,1111122 
DISL,ioos:station:DISL:MBLA:1,2012-05-01T05:12:00Z,30.4367,-88.0117,0.966,7.96,1111122 
DISL,ioos:station:DISL:MBLA:1,2012-05-01T05:15:00Z,30.4367,-88.0117,0.407,8.58,1111122 
DISL,ioos:station:DISL:MBLA:1,2012-05-01T06:02:00Z,30.4367,-88.0117,2.986,7.18,1111122 
DISL,ioos:station:DISL:MBLA:1,2012-05-01T06:05:00Z,30.4367,-88.0117,2.472,8.04,1111122 
DISL,ioos:station:DISL:MBLA:1,2012-05-01T06:07:00Z,30.4367,-88.0117,1.922,7.88,1111122 
DISL,ioos:station:DISL:MBLA:1,2012-05-01T06:10:00Z,30.4367,-88.0117,1.423,7.86,1111122 
DISL,ioos:station:DISL:MBLA:1,2012-05-01T06:12:00Z,30.4367,-88.0117,0.927,7.89,1111122 
DISL,ioos:station:DISL:MBLA:1,2012-05-01T06:15:00Z,30.4367,-88.0117,0.428,8.52,1111122 
DISL,ioos:station:DISL:MBLA:1,2012-05-01T07:02:00Z,30.4367,-88.0117,3.011,7.34,1111122 
DISL,ioos:station:DISL:MBLA:1,2012-05-01T07:05:00Z,30.4367,-88.0117,2.507,7.82,1111122 
DISL,ioos:station:DISL:MBLA:1,2012-05-01T07:07:00Z,30.4367,-88.0117,1.964,7.96,1111122 
DISL,ioos:station:DISL:MBLA:1,2012-05-01T07:10:00Z,30.4367,-88.0117,1.471,7.67,1111122 
DISL,ioos:station:DISL:MBLA:1,2012-05-01T07:12:00Z,30.4367,-88.0117,0.908,7.68,1111122 
DISL,ioos:station:DISL:MBLA:1,2012-05-01T07:15:00Z,30.4367,-88.0117,0.411,8.35,1111122 
DISL,ioos:station:DISL:MBLA:1,2012-05-01T08:02:00Z,30.4367,-88.0117,3.001,6.69,1111122 
DISL,ioos:station:DISL:MBLA:1,2012-05-01T08:05:00Z,30.4367,-88.0117,2.498,7.2,1111122 
DISL,ioos:station:DISL:MBLA:1,2012-05-01T08:07:00Z,30.4367,-88.0117,1.956,7.32,1111122 
DISL,ioos:station:DISL:MBLA:1,2012-05-01T08:10:00Z,30.4367,-88.0117,1.463,6.2,1111122 
DISL,ioos:station:DISL:MBLA:1,2012-05-01T08:12:00Z,30.4367,-88.0117,0.972,6.26,1111122 
DISL,ioos:station:DISL:MBLA:1,2012-05-01T08:15:00Z,30.4367,-88.0117,0.411,7.89,1111122 
DISL,ioos:station:DISL:MBLA:1,2012-05-01T09:02:00Z,30.4367,-88.0117,2.937,7.14,1111122 
DISL,ioos:station:DISL:MBLA:1,2012-05-01T09:05:00Z,30.4367,-88.0117,2.498,7.77,1111122 
DISL,ioos:station:DISL:MBLA:1,2012-05-01T09:07:00Z,30.4367,-88.0117,1.956,5.45,1111122 
DISL,ioos:station:DISL:MBLA:1,2012-05-01T09:10:00Z,30.4367,-88.0117,1.472,5.29,1111122 
DISL,ioos:station:DISL:MBLA:1,2012-05-01T09:12:00Z,30.4367,-88.0117,0.915,4.77,1111122 
DISL,ioos:station:DISL:MBLA:1,2012-05-01T09:15:00Z,30.4367,-88.0117,0.429,6.57,1111122 
DISL,ioos:station:DISL:MBLA:1,2012-05-01T10:02:00Z,30.4367,-88.0117,2.943,7.74,1111122 
DISL,ioos:station:DISL:MBLA:1,2012-05-01T10:05:00Z,30.4367,-88.0117,2.508,8.33,1111122 
DISL,ioos:station:DISL:MBLA:1,2012-05-01T10:07:00Z,30.4367,-88.0117,1.968,7.83,1111122 
DISL,ioos:station:DISL:MBLA:1,2012-05-01T10:10:00Z,30.4367,-88.0117,1.416,7.85,1111122 
DISL,ioos:station:DISL:MBLA:1,2012-05-01T10:12:00Z,30.4367,-88.0117,0.938,7.89,1111122 
DISL,ioos:station:DISL:MBLA:1,2012-05-01T10:15:00Z,30.4367,-88.0117,0.456,7.69,1111122 
DISL,ioos:station:DISL:MBLA:1,2012-05-01T11:02:00Z,30.4367,-88.0117,2.968,7.66,1111122 
DISL,ioos:station:DISL:MBLA:1,2012-05-01T11:05:00Z,30.4367,-88.0117,2.463,8.17,1111122 
DISL,ioos:station:DISL:MBLA:1,2012-05-01T11:07:00Z,30.4367,-88.0117,1.994,8.26,1111122 
DISL,ioos:station:DISL:MBLA:1,2012-05-01T11:10:00Z,30.4367,-88.0117,1.436,8.34,1111122 
DISL,ioos:station:DISL:MBLA:1,2012-05-01T11:12:00Z,30.4367,-88.0117,0.95,8.23,1111122 
DISL,ioos:station:DISL:MBLA:1,2012-05-01T11:15:00Z,30.4367,-88.0117,0.457,8.41,1111122 
DISL,ioos:station:DISL:MBLA:1,2012-05-01T12:02:00Z,30.4367,-88.0117,2.999,7.14,1111122 
DISL,ioos:station:DISL:MBLA:1,2012-05-01T12:05:00Z,30.4367,-88.0117,2.484,8.14,1111122 
DISL,ioos:station:DISL:MBLA:1,2012-05-01T12:07:00Z,30.4367,-88.0117,1.923,8.26,1111122 
DISL,ioos:station:DISL:MBLA:1,2012-05-01T12:10:00Z,30.4367,-88.0117,1.426,8.49,1111122 
DISL,ioos:station:DISL:MBLA:1,2012-05-01T12:12:00Z,30.4367,-88.0117,0.93,8.39,1111122 
DISL,ioos:station:DISL:MBLA:1,2012-05-01T12:15:00Z,30.4367,-88.0117,0.358,8.55,1111122 
DISL,ioos:station:DISL:MBLA:1,2012-05-01T13:02:00Z,30.4367,-88.0117,2.983,8.07,1111122 
DISL,ioos:station:DISL:MBLA:1,2012-05-01T13:05:00Z,30.4367,-88.0117,2.456,8.13,1111122 
DISL,ioos:station:DISL:MBLA:1,2012-05-01T13:07:00Z,30.4367,-88.0117,1.964,8.39,1111122 
DISL,ioos:station:DISL:MBLA:1,2012-05-01T13:10:00Z,30.4367,-88.0117,1.476,8.37,1111122 
DISL,ioos:station:DISL:MBLA:1,2012-05-01T13:12:00Z,30.4367,-88.0117,0.911,8.34,1111122 
DISL,ioos:station:DISL:MBLA:1,2012-05-01T13:15:00Z,30.4367,-88.0117,0.422,8.6,1111122 
DISL,ioos:station:DISL:MBLA:1,2012-05-01T14:02:00Z,30.4367,-88.0117,3.036,7.87,1111122 
DISL,ioos:station:DISL:MBLA:1,2012-05-01T14:05:00Z,30.4367,-88.0117,2.437,8.16,1111122 
DISL,ioos:station:DISL:MBLA:1,2012-05-01T14:07:00Z,30.4367,-88.0117,1.938,8.5,1111122 
DISL,ioos:station:DISL:MBLA:1,2012-05-01T14:10:00Z,30.4367,-88.0117,1.441,8.56,1111122 
DISL,ioos:station:DISL:MBLA:1,2012-05-01T14:12:00Z,30.4367,-88.0117,0.943,8.55,1111122 
DISL,ioos:station:DISL:MBLA:1,2012-05-01T14:15:00Z,30.4367,-88.0117,0.537,8.61,1111122 
DISL,ioos:station:DISL:MBLA:1,2012-05-01T15:02:00Z,30.4367,-88.0117,3.01,7.34,1111122 
DISL,ioos:station:DISL:MBLA:1,2012-05-01T15:05:00Z,30.4367,-88.0117,2.455,8.16,1111122 
DISL,ioos:station:DISL:MBLA:1,2012-05-01T15:08:00Z,30.4367,-88.0117,2.034,8.67,1111122 
DISL,ioos:station:DISL:MBLA:1,2012-05-01T15:10:00Z,30.4367,-88.0117,1.541,8.69,1111122 
DISL,ioos:station:DISL:MBLA:1,2012-05-01T15:13:00Z,30.4367,-88.0117,1.047,8.77,1111122 
DISL,ioos:station:DISL:MBLA:1,2012-05-01T15:15:00Z,30.4367,-88.0117,0.549,8.76,1111122 
DISL,ioos:station:DISL:MBLA:1,2012-05-01T16:02:00Z,30.4367,-88.0117,3.036,7.79,1111122 
DISL,ioos:station:DISL:MBLA:1,2012-05-01T16:05:00Z,30.4367,-88.0117,2.403,8.55,1111122 
DISL,ioos:station:DISL:MBLA:1,2012-05-01T16:07:00Z,30.4367,-88.0117,2.059,8.76,1111122 
DISL,ioos:station:DISL:MBLA:1,2012-05-01T16:10:00Z,30.4367,-88.0117,1.391,8.83,1111122 
DISL,ioos:station:DISL:MBLA:1,2012-05-01T16:12:00Z,30.4367,-88.0117,0.873,8.79,1111122 
DISL,ioos:station:DISL:MBLA:1,2012-05-01T16:15:00Z,30.4367,-88.0117,0.472,8.88,1111122 
DISL,ioos:station:DISL:MBLA:1,2012-05-01T17:02:00Z,30.4367,-88.0117,3.065,7.97,1111122 
DISL,ioos:station:DISL:MBLA:1,2012-05-01T17:05:00Z,30.4367,-88.0117,2.511,8.67,1111122 
DISL,ioos:station:DISL:MBLA:1,2012-05-01T17:07:00Z,30.4367,-88.0117,1.994,8.79,1111122 
DISL,ioos:station:DISL:MBLA:1,2012-05-01T17:10:00Z,30.4367,-88.0117,1.48,8.75,1111122 
DISL,ioos:station:DISL:MBLA:1,2012-05-01T17:12:00Z,30.4367,-88.0117,0.882,8.79,1111122 
DISL,ioos:station:DISL:MBLA:1,2012-05-01T17:15:00Z,30.4367,-88.0117,0.556,8.89,1111122 
DISL,ioos:station:DISL:MBLA:1,2012-05-01T18:02:00Z,30.4367,-88.0117,3.015,8.17,1111122 
DISL,ioos:station:DISL:MBLA:1,2012-05-01T18:05:00Z,30.4367,-88.0117,2.424,8.68,1111122 
DISL,ioos:station:DISL:MBLA:1,2012-05-01T18:08:00Z,30.4367,-88.0117,1.931,8.62,1111122 
DISL,ioos:station:DISL:MBLA:1,2012-05-01T18:10:00Z,30.4367,-88.0117,1.453,8.72,1111122 
DISL,ioos:station:DISL:MBLA:1,2012-05-01T18:12:00Z,30.4367,-88.0117,1.109,8.73,1111122 
DISL,ioos:station:DISL:MBLA:1,2012-05-01T18:15:00Z,30.4367,-88.0117,0.552,8.81,1111122 
DISL,ioos:station:DISL:MBLA:1,2012-05-01T19:02:00Z,30.4367,-88.0117,3.03,7.47,1111122 
DISL,ioos:station:DISL:MBLA:1,2012-05-01T19:05:00Z,30.4367,-88.0117,2.402,8.49,1111122 
DISL,ioos:station:DISL:MBLA:1,2012-05-01T19:07:00Z,30.4367,-88.0117,1.804,8.53,1111122 
DISL,ioos:station:DISL:MBLA:1,2012-05-01T19:10:00Z,30.4367,-88.0117,1.535,8.58,1111122 
DISL,ioos:station:DISL:MBLA:1,2012-05-01T19:12:00Z,30.4367,-88.0117,0.936,8.65,1111122 
DISL,ioos:station:DISL:MBLA:1,2012-05-01T19:15:00Z,30.4367,-88.0117,0.413,8.81,1111122 
DISL,ioos:station:DISL:MBLA:1,2012-05-01T20:02:00Z,30.4367,-88.0117,3.078,8.61,1111122 
DISL,ioos:station:DISL:MBLA:1,2012-05-01T20:05:00Z,30.4367,-88.0117,2.448,8.66,1111122 
DISL,ioos:station:DISL:MBLA:1,2012-05-01T20:07:00Z,30.4367,-88.0117,1.938,8.67,1111122 
DISL,ioos:station:DISL:MBLA:1,2012-05-01T20:10:00Z,30.4367,-88.0117,1.452,8.67,1111122 
DISL,ioos:station:DISL:MBLA:1,2012-05-01T20:13:00Z,30.4367,-88.0117,0.827,8.71,1111122 
DISL,ioos:station:DISL:MBLA:1,2012-05-01T20:15:00Z,30.4367,-88.0117,0.525,8.77,1111122 
DISL,ioos:station:DISL:MBLA:1,2012-05-01T21:02:00Z,30.4367,-88.0117,2.942,8.16,1111122 
DISL,ioos:station:DISL:MBLA:1,2012-05-01T21:05:00Z,30.4367,-88.0117,2.593,8.86,1111122 
DISL,ioos:station:DISL:MBLA:1,2012-05-01T21:08:00Z,30.4367,-88.0117,1.982,8.76,1111122 
DISL,ioos:station:DISL:MBLA:1,2012-05-01T21:10:00Z,30.4367,-88.0117,1.475,8.81,1111122 
DISL,ioos:station:DISL:MBLA:1,2012-05-01T21:13:00Z,30.4367,-88.0117,0.941,8.79,1111122 
DISL,ioos:station:DISL:MBLA:1,2012-05-01T21:15:00Z,30.4367,-88.0117,0.526,8.85,1111122 
DISL,ioos:station:DISL:MBLA:1,2012-05-01T22:02:00Z,30.4367,-88.0117,3.051,8.88,1111122 
DISL,ioos:station:DISL:MBLA:1,2012-05-01T22:05:00Z,30.4367,-88.0117,2.501,8.77,1111122 
DISL,ioos:station:DISL:MBLA:1,2012-05-01T22:08:00Z,30.4367,-88.0117,2.099,8.7,1111122 
DISL,ioos:station:DISL:MBLA:1,2012-05-01T22:10:00Z,30.4367,-88.0117,1.332,8.7,1111122 
DISL,ioos:station:DISL:MBLA:1,2012-05-01T22:13:00Z,30.4367,-88.0117,0.958,8.73,1111122 
DISL,ioos:station:DISL:MBLA:1,2012-05-01T22:15:00Z,30.4367,-88.0117,0.41,8.85,1111122 
DISL,ioos:station:DISL:MBLA:1,2012-05-01T23:02:00Z,30.4367,-88.0117,3.045,8.89,1111122 
DISL,ioos:station:DISL:MBLA:1,2012-05-01T23:05:00Z,30.4367,-88.0117,2.427,8.76,1111122 
DISL,ioos:station:DISL:MBLA:1,2012-05-01T23:07:00Z,30.4367,-88.0117,1.904,8.63,1111122 
DISL,ioos:station:DISL:MBLA:1,2012-05-01T23:10:00Z,30.4367,-88.0117,1.342,8.72,1111122 
DISL,ioos:station:DISL:MBLA:1,2012-05-01T23:13:00Z,30.4367,-88.0117,0.939,8.73,1111122 
DISL,ioos:station:DISL:MBLA:1,2012-05-01T23:15:00Z,30.4367,-88.0117,0.429,8.81,1111122 
DISL,ioos:station:DISL:MBLA:1,2012-05-02T00:02:00Z,30.4367,-88.0117,3.055,8.72,1111122 
DISL,ioos:station:DISL:MBLA:1,2012-05-02T00:05:00Z,30.4367,-88.0117,2.503,8.66,1111122 
DISL,ioos:station:DISL:MBLA:1,2012-05-02T00:07:00Z,30.4367,-88.0117,2.093,8.46,1111122 
DISL,ioos:station:DISL:MBLA:1,2012-05-02T00:10:00Z,30.4367,-88.0117,1.485,8.55,1111122 
DISL,ioos:station:DISL:MBLA:1,2012-05-02T00:13:00Z,30.4367,-88.0117,1.13,8.57,1111122 
DISL,ioos:station:DISL:MBLA:1,2012-05-02T00:15:00Z,30.4367,-88.0117,0.338,8.67,1111122 
DISL,ioos:station:DISL:MBLA:1,2012-05-02T01:02:00Z,30.4367,-88.0117,2.972,8.53,1111122 
DISL,ioos:station:DISL:MBLA:1,2012-05-02T01:05:00Z,30.4367,-88.0117,2.518,8.62,1111122 
DISL,ioos:station:DISL:MBLA:1,2012-05-02T01:07:00Z,30.4367,-88.0117,2.035,8.52,1111122 
DISL,ioos:station:DISL:MBLA:1,2012-05-02T01:10:00Z,30.4367,-88.0117,1.508,8.55,1111122 
DISL,ioos:station:DISL:MBLA:1,2012-05-02T01:13:00Z,30.4367,-88.0117,0.971,8.56,1111122 
DISL,ioos:station:DISL:MBLA:1,2012-05-02T01:15:00Z,30.4367,-88.0117,0.623,8.59,1111122 
DISL,ioos:station:DISL:MBLA:1,2012-05-02T02:02:00Z,30.4367,-88.0117,3.004,8.57,1111122 
DISL,ioos:station:DISL:MBLA:1,2012-05-02T02:05:00Z,30.4367,-88.0117,2.536,8.48,1111122 
DISL,ioos:station:DISL:MBLA:1,2012-05-02T02:07:00Z,30.4367,-88.0117,1.98,8.44,1111122 
DISL,ioos:station:DISL:MBLA:1,2012-05-02T02:10:00Z,30.4367,-88.0117,1.459,8.4,1111122 
DISL,ioos:station:DISL:MBLA:1,2012-05-02T02:13:00Z,30.4367,-88.0117,1.027,8.34,1111122 
DISL,ioos:station:DISL:MBLA:1,2012-05-02T02:15:00Z,30.4367,-88.0117,0.408,8.48,1111122 
DISL,ioos:station:DISL:MBLA:1,2012-05-02T03:02:00Z,30.4367,-88.0117,2.995,8.38,1111122 
DISL,ioos:station:DISL:MBLA:1,2012-05-02T03:05:00Z,30.4367,-88.0117,2.457,8.29,1111122 
DISL,ioos:station:DISL:MBLA:1,2012-05-02T03:07:00Z,30.4367,-88.0117,1.903,8.24,1111122 
DISL,ioos:station:DISL:MBLA:1,2012-05-02T03:10:00Z,30.4367,-88.0117,1.573,8.21,1111122 
DISL,ioos:station:DISL:MBLA:1,2012-05-02T03:12:00Z,30.4367,-88.0117,0.977,8.22,1111122 
DISL,ioos:station:DISL:MBLA:1,2012-05-02T03:15:00Z,30.4367,-88.0117,0.544,8.29,1111122 
DISL,ioos:station:DISL:MBLA:1,2012-05-02T04:02:00Z,30.4367,-88.0117,2.976,8.22,1111122 
DISL,ioos:station:DISL:MBLA:1,2012-05-02T04:05:00Z,30.4367,-88.0117,2.505,8.17,1111122 
DISL,ioos:station:DISL:MBLA:1,2012-05-02T04:07:00Z,30.4367,-88.0117,1.852,8.04,1111122 
DISL,ioos:station:DISL:MBLA:1,2012-05-02T04:10:00Z,30.4367,-88.0117,1.554,8.0,1111122 
DISL,ioos:station:DISL:MBLA:1,2012-05-02T04:13:00Z,30.4367,-88.0117,1.047,7.99,1111122 
DISL,ioos:station:DISL:MBLA:1,2012-05-02T04:15:00Z,30.4367,-88.0117,0.491,8.05,1111122 
DISL,ioos:station:DISL:MBLA:1,2012-05-02T05:02:00Z,30.4367,-88.0117,2.988,7.8,1111122 
DISL,ioos:station:DISL:MBLA:1,2012-05-02T05:05:00Z,30.4367,-88.0117,2.444,7.92,1111122 
DISL,ioos:station:DISL:MBLA:1,2012-05-02T05:07:00Z,30.4367,-88.0117,1.946,7.91,1111122 
DISL,ioos:station:DISL:MBLA:1,2012-05-02T05:10:00Z,30.4367,-88.0117,1.457,7.86,1111122 
DISL,ioos:station:DISL:MBLA:1,2012-05-02T05:13:00Z,30.4367,-88.0117,0.897,7.92,1111122 
DISL,ioos:station:DISL:MBLA:1,2012-05-02T05:15:00Z,30.4367,-88.0117,0.518,8.12,1111122 
DISL,ioos:station:DISL:MBLA:1,2012-05-02T06:02:00Z,30.4367,-88.0117,3.007,7.86,1111122 
DISL,ioos:station:DISL:MBLA:1,2012-05-02T06:05:00Z,30.4367,-88.0117,2.467,7.81,1111122 
DISL,ioos:station:DISL:MBLA:1,2012-05-02T06:07:00Z,30.4367,-88.0117,1.91,7.57,1111122 
DISL,ioos:station:DISL:MBLA:1,2012-05-02T06:10:00Z,30.4367,-88.0117,1.423,7.59,1111122 
DISL,ioos:station:DISL:MBLA:1,2012-05-02T06:12:00Z,30.4367,-88.0117,0.931,7.74,1111122 
DISL,ioos:station:DISL:MBLA:1,2012-05-02T06:15:00Z,30.4367,-88.0117,0.437,7.95,1111122 
DISL,ioos:station:DISL:MBLA:1,2012-05-02T07:02:00Z,30.4367,-88.0117,2.982,7.65,1111122 
DISL,ioos:station:DISL:MBLA:1,2012-05-02T07:05:00Z,30.4367,-88.0117,2.452,7.62,1111122 
DISL,ioos:station:DISL:MBLA:1,2012-05-02T07:07:00Z,30.4367,-88.0117,1.969,7.25,1111122 
DISL,ioos:station:DISL:MBLA:1,2012-05-02T07:10:00Z,30.4367,-88.0117,1.485,7.24,1111122 
DISL,ioos:station:DISL:MBLA:1,2012-05-02T07:12:00Z,30.4367,-88.0117,0.945,7.51,1111122 
DISL,ioos:station:DISL:MBLA:1,2012-05-02T07:15:00Z,30.4367,-88.0117,0.465,7.72,1111122 
DISL,ioos:station:DISL:MBLA:1,2012-05-02T08:02:00Z,30.4367,-88.0117,3.008,7.67,1111122 
DISL,ioos:station:DISL:MBLA:1,2012-05-02T08:05:00Z,30.4367,-88.0117,2.489,7.53,1111122 
DISL,ioos:station:DISL:MBLA:1,2012-05-02T08:07:00Z,30.4367,-88.0117,1.948,7.21,1111122 
DISL,ioos:station:DISL:MBLA:1,2012-05-02T08:10:00Z,30.4367,-88.0117,1.461,7.37,1111122 
DISL,ioos:station:DISL:MBLA:1,2012-05-02T08:12:00Z,30.4367,-88.0117,1.061,7.83,1111122 
DISL,ioos:station:DISL:MBLA:1,2012-05-02T08:15:00Z,30.4367,-88.0117,0.515,7.82,1111122 
DISL,ioos:station:DISL:MBLA:1,2012-05-02T09:02:00Z,30.4367,-88.0117,2.939,7.72,1111122 
DISL,ioos:station:DISL:MBLA:1,2012-05-02T09:05:00Z,30.4367,-88.0117,2.474,7.71,1111122 
DISL,ioos:station:DISL:MBLA:1,2012-05-02T09:07:00Z,30.4367,-88.0117,1.992,7.55,1111122 
DISL,ioos:station:DISL:MBLA:1,2012-05-02T09:10:00Z,30.4367,-88.0117,1.438,7.68,1111122 
DISL,ioos:station:DISL:MBLA:1,2012-05-02T09:12:00Z,30.4367,-88.0117,0.981,7.67,1111122 
DISL,ioos:station:DISL:MBLA:1,2012-05-02T09:15:00Z,30.4367,-88.0117,0.617,7.79,1111122 
DISL,ioos:station:DISL:MBLA:1,2012-05-02T10:02:00Z,30.4367,-88.0117,3.003,7.7,1111122 
DISL,ioos:station:DISL:MBLA:1,2012-05-02T10:05:00Z,30.4367,-88.0117,2.484,7.64,1111122 
DISL,ioos:station:DISL:MBLA:1,2012-05-02T10:08:00Z,30.4367,-88.0117,2.027,7.58,1111122 
DISL,ioos:station:DISL:MBLA:1,2012-05-02T10:10:00Z,30.4367,-88.0117,1.569,7.6,1111122 
DISL,ioos:station:DISL:MBLA:1,2012-05-02T10:13:00Z,30.4367,-88.0117,0.956,7.67,1111122 
DISL,ioos:station:DISL:MBLA:1,2012-05-02T10:15:00Z,30.4367,-88.0117,0.486,7.74,1111122 
DISL,ioos:station:DISL:MBLA:1,2012-05-02T11:02:00Z,30.4367,-88.0117,2.966,7.77,1111122 
DISL,ioos:station:DISL:MBLA:1,2012-05-02T11:05:00Z,30.4367,-88.0117,2.472,7.69,1111122 
DISL,ioos:station:DISL:MBLA:1,2012-05-02T11:07:00Z,30.4367,-88.0117,2.037,7.65,1111122 
DISL,ioos:station:DISL:MBLA:1,2012-05-02T11:10:00Z,30.4367,-88.0117,1.517,7.68,1111122 
DISL,ioos:station:DISL:MBLA:1,2012-05-02T11:13:00Z,30.4367,-88.0117,0.865,7.67,1111122 
DISL,ioos:station:DISL:MBLA:1,2012-05-02T11:15:00Z,30.4367,-88.0117,0.467,7.72,1111122 
DISL,ioos:station:DISL:MBLA:1,2012-05-02T12:02:00Z,30.4367,-88.0117,2.958,7.78,1111122 
DISL,ioos:station:DISL:MBLA:1,2012-05-02T12:05:00Z,30.4367,-88.0117,2.441,7.69,1111122 
DISL,ioos:station:DISL:MBLA:1,2012-05-02T12:07:00Z,30.4367,-88.0117,1.938,7.61,1111122 
DISL,ioos:station:DISL:MBLA:1,2012-05-02T12:10:00Z,30.4367,-88.0117,1.411,7.61,1111122 
DISL,ioos:station:DISL:MBLA:1,2012-05-02T12:12:00Z,30.4367,-88.0117,0.861,7.63,1111122 
DISL,ioos:station:DISL:MBLA:1,2012-05-02T12:15:00Z,30.4367,-88.0117,0.723,7.66,1111122 
DISL,ioos:station:DISL:MBLA:1,2012-05-02T13:02:00Z,30.4367,-88.0117,3.027,7.77,1111122 
DISL,ioos:station:DISL:MBLA:1,2012-05-02T13:05:00Z,30.4367,-88.0117,2.464,7.66,1111122 
DISL,ioos:station:DISL:MBLA:1,2012-05-02T13:07:00Z,30.4367,-88.0117,1.98,7.68,1111122 
DISL,ioos:station:DISL:MBLA:1,2012-05-02T13:10:00Z,30.4367,-88.0117,1.577,7.66,1111122 
DISL,ioos:station:DISL:MBLA:1,2012-05-02T13:12:00Z,30.4367,-88.0117,0.955,7.7,1111122 
DISL,ioos:station:DISL:MBLA:1,2012-05-02T13:15:00Z,30.4367,-88.0117,0.431,7.77,1111122 
DISL,ioos:station:DISL:MBLA:1,2012-05-02T14:02:00Z,30.4367,-88.0117,3.044,7.77,1111122 
DISL,ioos:station:DISL:MBLA:1,2012-05-02T14:05:00Z,30.4367,-88.0117,2.477,7.7,1111122 
DISL,ioos:station:DISL:MBLA:1,2012-05-02T14:07:00Z,30.4367,-88.0117,1.897,7.66,1111122 
DISL,ioos:station:DISL:MBLA:1,2012-05-02T14:10:00Z,30.4367,-88.0117,1.462,7.75,1111122 
DISL,ioos:station:DISL:MBLA:1,2012-05-02T14:12:00Z,30.4367,-88.0117,1.025,7.75,1111122 
DISL,ioos:station:DISL:MBLA:1,2012-05-02T14:15:00Z,30.4367,-88.0117,0.162,7.84,1111122 
DISL,ioos:station:DISL:MBLA:1,2012-05-02T15:02:00Z,30.4367,-88.0117,3.032,7.9,1111122 
DISL,ioos:station:DISL:MBLA:1,2012-05-02T15:05:00Z,30.4367,-88.0117,2.479,7.77,1111122 
DISL,ioos:station:DISL:MBLA:1,2012-05-02T15:08:00Z,30.4367,-88.0117,2.148,7.8,1111122 
DISL,ioos:station:DISL:MBLA:1,2012-05-02T15:10:00Z,30.4367,-88.0117,1.454,7.83,1111122 
DISL,ioos:station:DISL:MBLA:1,2012-05-02T15:13:00Z,30.4367,-88.0117,0.803,7.84,1111122 
DISL,ioos:station:DISL:MBLA:1,2012-05-02T15:16:00Z,30.4367,-88.0117,0.39,7.9,1111122 
DISL,ioos:station:DISL:MBLA:1,2012-05-02T16:02:00Z,30.4367,-88.0117,3.081,7.91,1111122 
DISL,ioos:station:DISL:MBLA:1,2012-05-02T16:05:00Z,30.4367,-88.0117,2.412,7.79,1111122 
DISL,ioos:station:DISL:MBLA:1,2012-05-02T16:08:00Z,30.4367,-88.0117,2.066,7.82,1111122 
DISL,ioos:station:DISL:MBLA:1,2012-05-02T16:11:00Z,30.4367,-88.0117,1.394,7.82,1111122 
DISL,ioos:station:DISL:MBLA:1,2012-05-02T16:13:00Z,30.4367,-88.0117,0.975,7.89,1111122 
DISL,ioos:station:DISL:MBLA:1,2012-05-02T16:16:00Z,30.4367,-88.0117,0.603,7.92,1111122 
DISL,ioos:station:DISL:MBLA:1,2012-05-02T17:02:00Z,30.4367,-88.0117,2.984,7.88,1111122 
DISL,ioos:station:DISL:MBLA:1,2012-05-02T17:05:00Z,30.4367,-88.0117,2.504,7.79,1111122 
DISL,ioos:station:DISL:MBLA:1,2012-05-02T17:07:00Z,30.4367,-88.0117,1.936,7.74,1111122 
DISL,ioos:station:DISL:MBLA:1,2012-05-02T17:10:00Z,30.4367,-88.0117,1.607,7.78,1111122 
DISL,ioos:station:DISL:MBLA:1,2012-05-02T17:13:00Z,30.4367,-88.0117,0.826,7.84,1111122 
DISL,ioos:station:DISL:MBLA:1,2012-05-02T17:15:00Z,30.4367,-88.0117,0.384,7.93,1111122 
DISL,ioos:station:DISL:MBLA:1,2012-05-02T18:02:00Z,30.4367,-88.0117,2.908,7.83,1111122 
DISL,ioos:station:DISL:MBLA:1,2012-05-02T18:05:00Z,30.4367,-88.0117,2.418,7.69,1111122 
DISL,ioos:station:DISL:MBLA:1,2012-05-02T18:08:00Z,30.4367,-88.0117,2.087,7.73,1111122 
DISL,ioos:station:DISL:MBLA:1,2012-05-02T18:10:00Z,30.4367,-88.0117,1.316,7.78,1111122 
DISL,ioos:station:DISL:MBLA:1,2012-05-02T18:12:00Z,30.4367,-88.0117,0.865,7.79,1111122 
DISL,ioos:station:DISL:MBLA:1,2012-05-02T18:16:00Z,30.4367,-88.0117,0.629,7.87,1111122 
DISL,ioos:station:DISL:MBLA:1,2012-05-02T19:02:00Z,30.4367,-88.0117,3.012,7.89,1111122 
DISL,ioos:station:DISL:MBLA:1,2012-05-02T19:05:00Z,30.4367,-88.0117,2.409,7.76,1111122 
DISL,ioos:station:DISL:MBLA:1,2012-05-02T19:08:00Z,30.4367,-88.0117,2.074,7.82,1111122 
DISL,ioos:station:DISL:MBLA:1,2012-05-02T19:10:00Z,30.4367,-88.0117,1.429,7.8,1111122 
DISL,ioos:station:DISL:MBLA:1,2012-05-02T19:12:00Z,30.4367,-88.0117,1.014,7.87,1111122 
DISL,ioos:station:DISL:MBLA:1,2012-05-02T19:15:00Z,30.4367,-88.0117,0.319,7.95,1111122 
DISL,ioos:station:DISL:MBLA:1,2012-05-02T20:02:00Z,30.4367,-88.0117,2.988,7.88,1111122 
DISL,ioos:station:DISL:MBLA:1,2012-05-02T20:05:00Z,30.4367,-88.0117,2.493,7.83,1111122 
DISL,ioos:station:DISL:MBLA:1,2012-05-02T20:08:00Z,30.4367,-88.0117,2.184,7.8,1111122 
DISL,ioos:station:DISL:MBLA:1,2012-05-02T20:11:00Z,30.4367,-88.0117,1.414,7.76,1111122 
DISL,ioos:station:DISL:MBLA:1,2012-05-02T20:13:00Z,30.4367,-88.0117,0.916,7.85,1111122 
DISL,ioos:station:DISL:MBLA:1,2012-05-02T20:16:00Z,30.4367,-88.0117,0.834,7.85,1111122 
DISL,ioos:station:DISL:MBLA:1,2012-05-02T21:02:00Z,30.4367,-88.0117,2.975,7.88,1111122 
DISL,ioos:station:DISL:MBLA:1,2012-05-02T21:05:00Z,30.4367,-88.0117,2.534,7.87,1111122 